Location: *
(55.6049°S, 142.1985°W)
Time: 04:18:50
(UTC+00:00)

Cosmos 2251 Rocket - Pass Details

Date: 12 May 2021
Orbit: 765 x 791 km, 74.0° (Epoch: 23 June)

Event Time Altitude Azimuth Distance (km) Brightness Sun altitude
Exits shadow 14:09:33 75° 304° (NW) 827 3.4 -25.6°
Maximum altitude 14:09:59 83° 241° (WSW) 809 3.4 -25.6°
Drops below altitude 10° 14:15:27 10° 153° (SSE) 2,389 6.4 -24.8°
Sets 14:17:52 0° 151° (SSE) 3,327 7.2 -24.5°
